Вернуться в каталог

COSMOS 1275 DEB

LostPO
NORAD 42121·DEBRIS·🇷🇺 Russia

Запущен Jun 4, 1981 с Plesetsk Cosmodrome

Loading…

Ближайшие Пролёты (ближайшие 24 часа)

TLE

УстаревшееSource: Space-Track

Эпоха: Feb 10, 2024, 18:25 UTC

1 42121U 81053QH  24041.76774431  .00005072  00000-0  30011-2 0  9998
2 42121  82.9208 200.8586 0043568  35.0254 325.3772 14.07045780963525

Отслеживайте COSMOS 1275 DEB в реальном времени с AllMySat

Download on the App Store